Simultaneous Nadir Overpasses (SNOs) Predictions

Prediction of SNOs between GOES-15 and METOP-C Satellite Orbit:

Table of predicted SNOs for the next 14.0 days since TLE Epoch: 6/20/2025
Index Date Time (GOES-15) GOES-15 Lat,Lon METOP-C Lat,Lon Distance(km) Time Diff (sec)
1 06/21/2025 05:20:22 -0.17, 61.27 -0.39, 62.26 112.30 80
2 06/22/2025 17:42:02 0.14, 61.30 -0.67, 57.67 413.73 80
3 06/23/2025 17:18:44 0.16, 61.30 0.49, 62.66 155.11 80
4 06/25/2025 05:40:14 -0.13, 61.26 0.60, 58.11 359.57 80
5 06/26/2025 05:16:56 -0.16, 61.27 -0.57, 63.10 208.58 80
6 06/27/2025 17:38:36 0.12, 61.31 -0.49, 58.51 318.47 80
7 06/28/2025 17:15:17 0.16, 61.31 0.67, 63.49 250.14 80
8 06/30/2025 05:36:48 -0.12, 61.27 0.40, 58.95 264.00 80
9 07/01/2025 05:13:29 -0.15, 61.27 -0.76, 63.93 304.29 80
10 07/02/2025 17:35:09 0.11, 61.31 -0.35, 59.36 222.86 80
11 07/03/2025 17:11:50 0.14, 61.31 0.82, 64.34 345.63 80
